Location: Star Hoppers Observatory
(42.7905°N, 83.6127°W)
Time: 23:39:39
(UTC-04:00)

Daily predictions for brighter satellites

Satellite Brightness Start Highest point End
(mag) Time Altitude Azimuth Time Altitude Azimuth Time Altitude Azimuth
Resurs 01 Rocket 3.7 21:49:43 10° SSW 21:53:25 26° W 21:57:10 10° NW
Cosmos 2227 Rocket 3.2 21:51:10 10° SW 21:56:40 52° WNW 22:02:12 10° NNE
Cosmos 1674 3.1 21:57:08 10° SSE 22:00:41 41° E 22:04:15 10° NNE
Atlas Centaur 2 3.3 22:00:47 10° SSW 22:01:32 10° S 22:02:16 10° S
Cosmos 1459 Rocket 4.3 21:55:45 10° N 22:01:56 54° ENE 22:07:58 10° SSE
Helios 1B rocket 2.7 21:58:16 10° N 22:02:26 76° WNW 22:06:33 10° SSW
Cosmos 2084 3.3 21:59:37 10° SSW 22:03:33 55° ESE 22:07:20 10° NE
Cosmos 1908 3.5 22:00:19 10° N 22:04:08 51° E 22:07:53 10° SSE
Meteor 1-24 Rocket 4.4 21:58:37 10° SSW 22:04:28 62° WNW 22:10:11 10° N
Cosmos 2100 Rocket 4.2 21:58:36 10° N 22:04:51 61° E 22:11:07 10° SSE
SL-16 R/B 2.3 21:59:49 10° NNW 22:05:31 85° WSW 22:11:10 10° SSE
ARGOS 3.7 22:01:52 10° SE 22:06:59 44° ENE 22:12:06 10° N
In-Cosmos 22 4.5 22:01:26 10° SSW 22:07:08 80° W 22:12:57 10° N
MetOp-A 4.4 22:01:56 10° SSE 22:07:10 57° ENE 22:12:24 10° N
Helios 1A 3.8 22:04:18 10° S 22:08:18 49° W 22:12:20 10° NNW
Cosmos 2061 Rocket 4.3 22:02:32 10° N 22:08:48 56° ENE 22:15:05 10° SSE
ERBS 4.5 22:07:36 10° NNW 22:10:11 20° NNE 22:12:45 10° ENE
Meteor 1-29 3.3 22:07:54 10° N 22:11:20 67° WNW 22:14:45 10° SSW
SAR-Lupe-4 4.2 22:09:17 10° S 22:12:47 55° W 22:16:20 10° NNW
Envisat 4.3 22:08:44 10° SSW 22:13:27 39° W 22:18:13 10° NNW
KORONAS-FOTON 4.3 22:10:59 10° SSE 22:14:33 40° E 22:18:07 10° NNE
Cosmos 2173 Rocket 4.0 22:10:15 10° N 22:16:24 68° E 22:22:35 10° SSE
Cosmos 2208 Rocket 4.1 22:11:15 10° NNW 22:16:36 84° ENE 22:21:57 10° SSE
Lacrosse 4 Rocket 4.3 22:16:26 10° WSW 22:19:53 23° NW 22:23:25 10° N
SPOT 1/Viking Rocket 4.0 22:25:32 14° SE 22:29:45 46° ENE 22:34:41 10° N
Cosmos 1570 Rocket 4.3 22:24:31 10° NNW 22:29:48 68° WSW 22:34:58 10° S
Cosmos 1242 Rocket 2.7 22:27:42 10° NNW 22:31:26 77° W 22:34:52 12° S
Cosmos 1356 Rocket 3.6 22:31:02 10° SSW 22:35:17 81° W 22:39:37 10° N
NOAA 11 4.4 22:31:46 10° S 22:37:10 73° WSW 22:42:37 10° NNW
Cosmos 1802 Rocket 4.0 22:31:54 10° N 22:38:04 86° E 22:43:58 11° S
Cosmos 1725 Rocket 4.3 22:32:44 10° N 22:38:50 52° ENE 22:43:35 17° SSE
Cosmos 2227 4.2 22:35:39 10° SSW 22:41:20 68° ESE 22:47:00 10° NNE
SPOT 5 2.9 22:37:41 15° SSE 22:41:45 81° ENE 22:46:52 10° NNW
Cosmos 371 Rocket 3.8 22:37:55 10° N 22:42:34 45° ENE 22:45:45 19° SE
Lacrosse 5 2.0 22:37:51 10° NW 22:42:55 68° NE 22:46:42 18° ESE
Cosmos 2058 4.5 22:41:53 17° ESE 22:43:23 20° E 22:46:28 10° NE
Cosmos 1408 Rocket 3.4 22:39:38 10° S 22:43:56 83° E 22:48:16 10° N
Cosmos 1076 Rocket 4.1 22:40:38 10° SSW 22:44:56 60° W 22:49:17 10° N
Cosmos 1867 3.9 22:41:58 10° SW 22:47:23 72° NW 22:52:52 10° NNE
Tiangong 1 0.7 22:50:45 10° W 22:53:33 87° N 22:55:09 22° E
Abrixas rocket 2.9 22:51:25 10° WNW 22:54:35 49° NNE 22:56:48 18° E
RESURS DK-1 2.3 22:51:31 10° NNW 22:55:43 83° ENE 22:58:06 25° SSE
Cosmos 2221 4.3 22:53:08 10° NNW 22:56:56 29° W 23:00:44 10° SSW
USA 234 3.2 22:53:31 10° NE 23:00:05 77° SE 23:06:37 10° SW
Cosmos 468 Rocket 4.0 22:55:17 10° NNW 23:00:26 82° WSW 23:03:53 21° SSE
Meteor 2-2 Rocket 4.3 22:57:17 10° N 23:03:05 88° E 23:07:23 19° S
EO 1 Delta rocket 3.8 22:59:49 20° SSE 23:03:10 88° ENE 23:07:48 10° N
Cosmos 1500 Rocket 3.9 23:01:39 24° SSE 23:04:00 48° E 23:08:17 10° NNE
Cosmos 2151 3.6 23:02:32 26° SE 23:04:20 39° E 23:08:21 10° NNE
SL-14 R/B 3.2 23:02:08 21° S 23:04:44 76° E 23:08:41 10° NNE
Cosmos 1626 3.3 23:05:11 24° ESE 23:05:53 26° E 23:09:01 10° NNE
ERS-1 Rocket 4.4 23:02:29 10° SSW 23:06:58 32° W 23:11:30 10° NNW
Landsat 7 3.8 23:04:12 24° SSE 23:07:01 70° ENE 23:11:46 10° N
Cosmos 2016 Rocket 4.2 23:01:01 10° NNW 23:07:14 69° W 23:12:32 14° S
Cosmos 2263 Rocket 2.7 23:04:26 22° SSE 23:07:24 38° ESE 23:12:33 10° NE
Meteor 2-10 4.2 23:02:39 10° N 23:08:17 83° E 23:12:05 22° SSE
Cosmos 1300 2.6 23:04:29 10° N 23:08:20 86° W 23:10:19 27° S
Cosmos 1726 2.5 23:07:02 10° NNW 23:10:39 58° W 23:12:45 23° SSW
Cosmos 1328 3.8 23:09:20 21° S 23:12:00 90° NW 23:16:04 10° N
H-2A R/B 2.2 23:10:15 20° S 23:13:58 75° WSW 23:19:25 10° NNW
ATLAS 5 CENTAUR R/B 3.7 23:09:58 10° WSW 23:14:15 33° NW 23:18:56 10° NNE
CARTOSAT-1 3.8 23:12:29 29° SE 23:14:28 56° ENE 23:18:43 10° N
Terra 1.9 23:19:38 30° SSE 23:21:58 69° ENE 23:26:43 10° N
Cosmos 1328 Rocket 4.0 23:22:15 10° NNW 23:26:30 57° W 23:28:53 24° SSW
CZ-4B R/B 4.2 23:25:48 10° NNE 23:30:43 38° E 23:32:19 31° SE
Cosmos 1515 Rocket 3.6 23:26:58 10° NNW 23:31:18 71° W 23:33:17 31° S
SL-19 R/B 4.3 23:26:12 10° NNE 23:31:29 59° ESE 23:34:17 29° S
Cosmos 2233 Rocket 3.9 23:25:57 10° N 23:32:12 83° E 23:35:40 28° SSE
Cosmos 332 Rocket 4.5 23:27:49 10° NNW 23:32:33 48° WSW 23:35:08 25° SSW
Cosmos 1603 4.4 23:27:12 10° NW 23:32:37 47° WSW 23:35:50 23° S
Cosmos 540 Rocket 4.2 23:28:59 10° N 23:33:52 41° ENE 23:36:05 27° ESE
Cosmos 2228 Rocket 3.7 23:30:02 10° NNW 23:34:30 53° W 23:37:00 24° SSW
H-2A R/B 2.0 23:34:10 38° SSE 23:35:44 74° ENE 23:39:59 10° N
Cosmos 1151 Rocket 3.0 23:31:34 10° N 23:35:59 83° W 23:37:43 36° S
Cosmos 1743 Rocket 4.1 23:33:39 18° SSW 23:36:40 54° W 23:40:55 10° N
Cosmos 1844 Rocket 4.4 23:41:57 15° E 23:41:57 15° E 23:45:05 10° ENE
Cosmos 1455 2.6 23:38:15 10° N 23:42:01 49° ENE 23:42:40 44° ESE
IGS 5A 3.5 23:41:12 39° S 23:42:38 75° WSW 23:46:49 10° NNW
Cosmos 1356 3.7 23:44:50 42° SW 23:45:49 66° W 23:49:18 10° N
Cosmos 304 Rocket 4.0 23:41:33 10° NNW 23:46:18 59° ENE 23:47:54 38° SE
ERBS 2.4 23:43:46 10° NW 23:47:06 57° SW 23:47:11 57° SW
Cosmos 1943 3.3 23:43:15 10° NNW 23:48:53 70° WSW 23:51:21 34° S
Spot 4 4.0 23:47:15 39° SE 23:48:58 66° ENE 23:53:49 10° N
CZ-4C R/B 4.0 23:49:57 39° ESE 23:51:00 48° ENE 23:55:15 10° N
Cosmos 1354 Rocket 3.9 23:51:23 35° S 23:53:37 72° ESE 23:58:51 10° NNE
